#timestamp,LO_Frequency,Hit,StdDev 
1596673535.7,286025839.0,P
1596673555.5,286025837.5,P
1596673575.4,286025838.7,P
1596673595.2,286025838.7,Y
1596673615.1,286047000.3,P
1596673616.0,286047000.3,N
1596673635.8,286047002.4,N
1596673655.6,286046999.9,N
1596673675.5,286047000.5,N
1596673695.3,286047001.6,N
1596673715.2,286047000.1,N
1596673735.9,286046999.7,N
1596673755.7,286047002.3,N
1596673775.6,286047002.6,N
1596673795.4,286047002.6,N
1596673815.2,286047002.5,N
1596673835.1,286046999.8,N
1596673866.0,286047001.9,E
1596673875.0,286047002.3,N
1596673875.9,286047002.3,P
1596673895.8,286047000.4,P
1596673915.6,286046999.8,N
1596673935.5,286047002.7,N
1596673955.3,286047002.3,N
1596673975.1,286047002.1,N
1596673995.9,286047002.1,N
1596674015.7,286047001.6,N
1596674035.5,286047001.8,N
1596674055.4,286047001.5,N
1596674075.2,286047001.7,N
1596674095.1,286047003.2,Y
1596674126.0,286047002.8,E
1596674135.0,286046999.8,N
1596674135.9,286046999.8,P
1596674155.8,286047000.6,P
1596674175.6,286047001.0,N
1596674195.4,286047000.0,N
1596674215.3,286047001.0,N
1596674235.1,286046999.9,N
1596674255.8,286047000.2,N
1596674275.7,286046999.9,N
1596674295.5,286047000.2,N
1596674315.4,286047000.0,N
1596674335.2,286046999.8,N
1596674355.0,286046999.8,N
1596674355.9,286046999.8,N
1596674375.8,286047002.1,Y
1596674395.6,286047001.5,P
1596674415.5,286047002.4,P
1596674435.3,286047002.3,N
1596674455.1,286047002.4,N
1596674475.9,286046999.8,N
1596674495.7,286047001.5,N
1596674515.6,286047002.4,N
1596674535.4,286047002.7,N
1596674555.2,286047002.3,N
1596674575.1,286047002.6,N
1596674576.0,286047002.6,N
1596674595.8,286047001.8,N
1596674615.7,286047004.0,Y
1596674635.5,286047000.4,P
1596674655.3,286047000.5,N
1596674675.2,286047002.5,P
1596674695.0,286047001.7,N
1596674695.9,286047001.7,N
1596674715.7,286047002.0,N
1596674735.6,286047002.1,N
1596674755.4,286047002.5,Y
1596674775.3,286047000.6,P
1596674795.1,286047002.5,P
1596674815.8,286046999.8,N
1596674835.7,286047001.5,N
1596674855.5,286047002.6,N
1596674875.4,286047002.7,N
1596674895.2,286047002.4,N
1596674915.0,286047002.8,N
1596674915.9,286047002.8,N
1596674935.8,286047002.0,N
1596674955.6,286047002.7,N
1596674975.5,286047002.5,N
1596674995.3,286047001.9,N
1596675015.1,286047001.9,N
1596675035.9,286047002.5,N
1596675055.7,286047002.3,N
1596675075.5,286047001.8,N
1596675095.4,286047001.6,N
1596675115.2,286047004.4,Y
1596675135.1,286047002.5,P
1596675136.0,286047002.5,P
1596675155.8,286047002.4,P
1596675175.6,286047002.3,Y
1596675195.5,286046999.2,P
1596675215.3,286046999.1,N
1596675235.2,286046998.3,N
1596675255.9,286046998.7,N
1596675275.7,286046998.7,N
1596675295.6,286046998.9,N
1596675315.4,286046997.0,N
1596675335.2,286046998.6,N
1596675355.1,286047001.1,N
1596675356.0,286047001.1,N
1596675375.8,286046998.2,N
1596675395.7,286046998.1,N
1596675415.5,286046998.4,N
1596675435.3,286046998.1,N
1596675455.2,286047000.4,N
1596675475.9,286047000.9,N
1596675495.7,286046999.9,N
1596675545.6,286047000.7,E
1596675555.5,286047000.4,N
1596675575.4,286047001.2,P
1596675595.2,286046998.8,P
